Flag for Canada Weather past 2 weeks in Cornwall, Ontario, Canada

Now
34 °F

Chilly.


Feels Like: 28 °F
Forecast: 22 / 31 °F
Wind: 7 mph from Southwest

Location: St Anicet

Current Time: Mar 27, 2015 at 12:05:05 AM

Latest Report: Mar 26, 2015 at 11:00 PM


Visibility: N/A

Pressure: 29.75 "Hg

Humidity: 97%

Dew point: 34 °F

Location of CornwallLocation

Historic Weather in Cornwall — Graph

°F

Cornwall temperature yesterday

Maximum temperature yesterday: 44 °F (at 4:00 AM)
Minimum temperature yesterday: 33 °F (at 9:00 PM)
Average temperature yesterday: 39 °F

Past Weeks' High & Low Weather Summary

 TemperatureHumidityPressure
High45 °F (Mar 25, 5:00 PM)100% (Mar 15, 12:00 AM)30.65 "Hg (Mar 15, 12:00 AM)
Low4 °F (Mar 19, 4:00 AM)33% (Mar 19, 2:00 PM)29.52 "Hg (Mar 17, 9:00 AM)
Average25 °F69%30.11 "Hg
* Reported Mar 11 10:00 PM — Mar 26 10:00 PM, Cornwall, Weather by CustomWeather, © 2015

Note: Actual official high and low records may vary slightly from our data, if they occured in-between our weather recording intervals... More about our weather records

Advertising

Cornwall weather history for previous 24 hours

 ConditionsComfort  
Time TempWeatherWind HumidityBarometerVisibility
10:00 PM
Thu, Mar 26
35 °FChilly.7 mph97%29.77 "HgN/A
9:00 PM33 °FChilly.6 mph100%29.76 "HgN/A
8:00 PM35 °FChilly.5 mph97%29.76 "HgN/A
7:00 PM35 °FChilly.5 mph97%29.76 "HgN/A
6:00 PM35 °FChilly.5 mph97%29.74 "HgN/A
5:00 PM35 °FChilly.5 mph97%29.74 "HgN/A
4:00 PM35 °FChilly.5 mph97%29.75 "HgN/A
3:00 PM35 °FChilly.6 mph95%29.76 "HgN/A
2:00 PM39 °FChilly.10 mph81%29.78 "HgN/A
1:00 PM40 °FQuite cool.6 mph76%29.79 "HgN/A
12:00 PM43 °FQuite cool.9 mph66%29.81 "HgN/A
11:00 AM40 °FQuite cool.10 mph72%29.83 "HgN/A
10:00 AM42 °FQuite cool.12 mph68%29.83 "HgN/A
9:00 AM41 °FQuite cool.12 mph75%29.85 "HgN/A
8:00 AM40 °FChilly.12 mph77%29.86 "HgN/A
7:00 AM40 °FChilly.12 mph81%29.86 "HgN/A
6:00 AM41 °FQuite cool.17 mph81%29.84 "HgN/A
5:00 AM43 °FQuite cool.15 mph80%29.82 "HgN/A
4:00 AM44 °FQuite cool.15 mph79%29.81 "HgN/A
3:00 AM44 °FQuite cool.13 mph79%29.80 "HgN/A
2:00 AM44 °FQuite cool.15 mph80%29.83 "HgN/A
1:00 AM44 °FQuite cool.15 mph80%29.84 "HgN/A
12:00 AM44 °FQuite cool.17 mph81%29.83 "HgN/A
Weather by CustomWeather, © 2015

See weather overviewHow to use our weather pages